Theta_e
324 320 316 314 314 314 315 315 314 314 313 313 313 313 313 312 313 314 314 314 313 311 308 307 305 304 305 304 303 302 302 302 301 302 301 304 304 305 303 307 307 309 309
324 321 316 314 314 314 315 315 314 314 314 313 313 313 313 312 314 314 314 313 311 308 306 304 304 303 303 303 302 302 302 301 301 301 301 302 302 302 300 302 305 305 303
323 322 317 315 314 314 314 314 313 314 314 313 313 312 312 313 313 314 313 311 308 306 304 303 303 302 302 302 301 301 301 301 300 300 301 300 300 300 301 301 300 300 301
323 322 318 316 315 314 313 314 313 313 313 313 312 312 312 313 313 314 312 310 307 304 303 302 302 302 302 301 300 300 299 300 300 299 299 298 299 299 299 300 299 298 298
323 322 319 317 316 314 313 314 313 313 313 312 312 311 312 314 314 313 311 310 307 304 302 302 302 301 301 299 298 298 297 298 299 299 298 298 297 297 298 297 297 297 297
322 323 320 317 316 315 315 313 313 313 313 313 312 313 312 312 315 313 312 311 308 305 303 302 301 300 299 298 297 297 296 297 297 297 297 296 296 297 296 295 295 295 295
323 323 321 318 316 316 316 314 313 313 313 312 313 313 313 313 314 314 313 312 308 306 303 301 300 299 298 298 297 296 295 296 296 295 295 295 295 295 294 294 294 294 293
323 322 321 318 317 317 316 315 315 314 313 313 313 313 313 314 315 315 313 310 306 303 301 300 299 298 298 297 297 296 296 295 295 295 295 294 294 294 293 293 293 292 292
320 320 320 319 318 317 317 316 315 314 313 313 313 313 314 315 314 311 309 306 304 302 299 299 298 297 297 296 296 296 296 295 295 295 294 294 293 293 293 293 292 292 291
319 319 318 318 319 317 318 317 315 315 315 314 313 314 315 314 310 308 306 303 301 300 299 298 297 296 296 296 296 295 295 295 295 295 294 294 294 293 293 293 292 292 291
318 317 316 315 315 317 319 318 316 316 315 313 315 314 311 309 307 304 302 301 300 298 297 297 297 296 296 295 294 294 293 294 293 293 292 292 292 293 293 293 292 292 291
316 315 313 313 313 315 317 318 317 315 314 313 311 309 307 305 303 301 300 299 298 298 297 297 296 295 294 293 292 292 291 289 289 289 288 288 288 289 290 291 290 290 291
314 315 314 314 314 315 316 314 312 311 310 309 308 306 303 302 300 299 298 297 297 296 295 294 293 292 291 291 290 288 287 287 286 286 285 285 285 286 288 288 288 288 288
314 314 314 313 313 314 313 311 309 308 308 306 303 301 300 299 298 297 296 295 294 293 292 291 291 290 290 289 286 286 285 284 284 284 284 284 285 287 286 287 287 288 287
313 313 313 312 311 310 309 308 306 304 303 301 300 298 297 296 295 294 292 291 291 291 291 290 289 288 288 286 284 283 283 284 283 283 284 285 286 285 286 285 286 286 287
312 311 309 308 307 306 304 303 301 300 299 298 296 295 294 293 291 291 291 291 290 289 289 288 287 287 286 285 283 283 283 283 283 284 284 285 285 285 285 285 284 284 285
310 309 307 305 304 303 302 300 299 297 296 295 293 292 291 291 290 290 289 288 288 287 287 287 286 286 286 284 282 282 283 283 283 283 283 283 283 283 283 283 283 283 284
308 306 305 304 302 301 299 298 297 295 294 292 292 291 290 290 289 288 287 287 287 287 286 286 285 285 285 283 282 282 282 282 281 282 282 281 281 282 282 281 281 281 281
306 305 303 301 300 298 297 296 294 293 292 291 290 289 289 288 287 286 286 286 286 286 285 285 285 284 284 282 281 281 281 280 280 280 280 280 280 281 281 280 280 280 280
304 302 300 299 298 297 295 294 293 291 290 289 289 288 287 286 286 285 285 285 285 285 284 284 284 283 283 282 281 280 279 279 279 279 279 280 280 280 280 279 279 279 279
301 300 299 297 296 295 294 292 290 289 289 288 287 287 286 285 285 285 285 284 284 284 284 283 283 282 282 281 281 280 279 278 278 279 279 279 279 279 279 279 279 280 280
300 298 296 295 294 293 292 290 288 287 287 286 286 286 285 284 284 284 284 284 283 283 282 281 282 281 281 280 280 279 278 278 278 278 278 278 278 279 280 280 280 280 280
298 296 295 293 291 290 290 288 286 286 286 285 285 285 284 283 284 284 283 282 282 281 280 280 281 280 280 279 279 277 277 277 277 277 277 278 279 280 280 280 280 280 280
297 295 293 292 290 288 287 286 285 285 285 285 284 284 283 283 283 283 282 281 282 281 280 280 279 279 279 278 277 277 277 277 277 277 277 278 280 279 279 279 279 279 279
296 295 293 291 289 287 286 285 284 284 284 284 284 283 283 283 283 282 281 282 282 280 280 279 278 278 278 277 277 277 278 278 278 278 278 279 279 279 279 279 278 278 278
295 293 291 290 288 286 285 284 284 283 283 283 282 282 282 282 282 281 281 282 282 281 281 280 278 278 278 277 277 278 278 278 278 278 279 279 278 278 278 278 278 278 278
Wind_Speed
17 18 18 16 18 23 21 19 18 18 14 13 12 11 11 8 7 6 6 5 6 8 7 10 10 12 14 13 16 18 19 19 22 18 25 20 17 21 24 21 13 12 11
13 21 22 18 17 25 22 20 19 20 17 14 14 12 13 9 11 9 6 6 5 7 8 9 9 11 12 14 16 17 19 18 21 17 20 4 16 25 29 22 17 18 19
15 16 24 24 21 24 22 22 20 21 19 16 12 9 10 8 7 5 8 5 4 6 7 7 8 11 11 13 14 16 16 17 18 18 12 4 3 21 11 19 22 23 19
14 15 23 24 25 20 24 20 20 21 20 18 16 14 13 14 16 14 10 4 3 4 5 7 9 10 10 12 12 13 14 15 16 18 15 15 18 4 6 11 22 23 23
8 14 22 27 25 22 24 22 21 21 21 20 15 16 11 10 13 10 7 5 2 1 4 6 7 9 9 10 11 13 14 13 15 15 18 19 18 17 12 8 16 21 21
9 13 24 27 25 24 23 24 20 21 20 20 18 10 15 10 13 10 7 6 3 2 1 3 6 7 8 10 11 12 13 14 14 14 15 17 16 15 14 8 16 16 19
2 7 14 21 22 25 24 23 21 19 20 19 16 13 9 9 5 9 7 7 5 5 6 4 6 8 9 10 11 12 14 13 12 13 16 16 17 18 18 16 15 13 20
8 2 9 18 22 26 28 24 20 18 18 17 14 12 9 7 7 6 0 2 2 4 4 3 6 8 10 12 14 14 14 15 16 15 14 17 17 16 16 17 15 9 15
6 5 1 11 19 23 28 27 20 18 16 17 13 10 8 6 4 7 5 2 2 3 4 5 8 11 13 15 16 17 17 18 17 17 21 18 18 18 21 18 16 16 8
11 8 10 10 6 17 26 29 23 17 15 18 13 9 6 3 6 7 4 4 4 4 7 8 11 14 16 17 18 18 18 22 24 22 21 20 23 21 21 22 19 21 18
8 9 14 17 16 11 23 28 22 13 18 16 12 11 10 9 7 5 5 4 5 6 9 12 15 17 19 19 22 22 23 24 25 23 23 24 25 23 23 23 22 19 17
8 9 11 12 12 12 13 21 17 20 21 19 17 15 12 7 6 5 5 6 7 10 12 15 18 19 21 22 23 21 18 24 27 25 28 27 26 28 26 18 23 22 21
8 8 10 12 13 16 21 29 28 27 23 20 17 13 10 7 7 7 8 9 11 13 16 17 18 19 20 22 16 18 22 25 26 29 30 31 32 29 25 22 23 23 24
9 9 10 14 15 17 25 25 23 22 20 18 17 14 10 9 9 9 10 12 14 14 16 17 18 19 20 14 14 16 18 22 24 26 27 28 29 24 27 18 17 18 19
10 11 11 15 18 20 21 21 20 19 19 17 14 11 9 8 9 10 11 12 13 15 16 17 18 19 20 12 19 21 23 22 25 25 25 26 24 26 18 23 20 17 18
12 13 16 19 19 19 19 20 20 19 17 15 12 10 8 9 10 11 12 13 16 16 17 17 18 18 19 13 18 20 20 22 24 25 25 25 25 26 21 19 17 18 20
13 14 17 18 18 18 18 18 17 15 14 12 10 10 10 10 12 12 14 16 16 17 17 17 17 18 16 16 15 20 21 21 23 24 26 25 24 23 24 24 23 21 22
14 16 17 18 19 18 17 16 14 13 12 11 10 10 10 10 13 13 15 15 16 17 17 17 17 18 14 15 20 22 19 21 23 24 25 26 25 23 23 24 22 23 24
17 18 19 18 18 16 15 14 13 12 10 10 9 9 10 12 13 14 15 15 16 17 17 17 18 18 11 17 19 21 20 22 23 24 27 26 26 22 23 26 25 26 26
20 19 19 17 16 14 13 13 12 10 9 8 8 10 11 12 12 14 14 15 16 16 17 18 18 19 16 20 21 23 22 23 24 26 24 24 23 26 29 30 26 26 25
21 19 17 16 14 12 12 12 10 9 8 8 8 10 11 11 12 12 13 14 15 16 16 18 18 17 19 21 20 22 23 24 26 24 25 24 26 31 27 25 27 24 27
21 18 17 15 13 11 11 11 9 7 7 8 8 10 11 11 11 13 13 14 15 16 19 18 16 18 18 19 19 22 24 26 24 25 26 28 29 27 28 26 22 25 26
20 18 17 15 13 11 10 10 8 7 8 8 9 10 11 11 11 12 12 13 14 15 17 16 16 17 18 19 19 26 26 25 26 24 26 27 28 25 22 22 23 22 21
19 18 16 15 13 11 10 9 8 8 8 8 9 10 10 11 12 11 11 11 11 11 13 13 14 16 17 18 24 27 27 26 26 28 31 28 22 22 22 22 22 21 21
18 16 15 14 12 10 9 8 8 8 9 8 9 10 10 11 12 11 11 7 7 10 9 8 10 14 16 18 23 25 26 26 27 29 25 20 22 23 23 22 22 22 22
17 16 14 14 11 9 8 8 8 8 8 8 9 10 11 11 11 13 13 12 10 12 12 10 11 12 13 20 23 23 24 24 22 22 20 21 21 22 22 23 23 22 22
Wind_Direction
182 177 168 176 173 159 167 175 173 171 168 168 179 169 169 156 129 109 96 87 78 49 53 51 23 36 25 11 14 4 2 359 357 355 341 338 349 12 1 360 343 343 358
185 169 163 178 188 163 175 181 184 177 183 185 190 178 168 177 144 126 120 99 71 77 38 48 26 28 23 12 16 10 1 356 357 360 334 337 325 345 339 338 356 350 3
181 169 167 178 184 168 181 186 190 182 190 194 196 179 157 148 142 162 143 106 75 51 52 37 27 29 21 13 12 5 5 354 352 357 360 343 345 331 348 334 346 355 354
180 175 170 172 177 188 181 192 191 187 193 204 193 187 180 195 201 162 138 143 91 66 43 30 28 19 19 7 7 357 356 350 345 347 348 334 322 317 317 339 330 340 345
192 177 171 169 175 189 183 192 193 191 195 203 206 191 216 173 142 137 134 149 191 59 48 24 21 10 3 1 1 353 349 345 340 341 341 331 329 327 327 317 334 331 331
207 175 168 167 174 186 186 186 197 196 196 196 218 220 201 241 154 150 159 203 187 302 214 49 8 2 354 351 348 342 339 335 335 340 331 330 325 327 327 316 321 319 323
227 166 154 160 170 177 182 181 199 201 198 196 203 219 222 208 190 172 191 216 234 217 127 45 2 347 341 337 333 332 334 324 325 328 321 314 318 316 315 313 313 314 319
14 97 155 165 174 177 177 182 195 212 197 194 195 205 208 216 215 223 178 110 35 71 10 359 337 330 329 326 322 316 314 314 309 298 295 299 294 296 308 308 323 314 309
65 34 204 189 182 176 175 178 188 201 203 186 182 195 201 223 191 115 111 34 14 20 55 346 333 327 326 323 319 311 306 301 296 296 297 286 289 295 294 287 289 288 295
28 34 25 9 233 188 177 177 181 192 207 166 165 176 163 131 83 78 85 47 21 3 341 334 326 322 320 320 319 322 322 314 302 295 291 293 294 292 288 295 295 285 298
38 31 25 12 3 10 159 162 168 189 147 137 128 107 99 84 78 76 61 31 9 345 334 326 325 328 330 334 334 330 324 320 324 333 343 339 330 316 312 302 298 305 301
63 52 45 31 28 35 76 144 145 106 107 107 102 93 90 87 73 57 43 16 355 342 338 337 342 341 339 338 335 340 354 358 351 350 342 337 337 332 323 328 327 316 308
76 70 66 59 56 59 79 77 84 89 96 96 95 95 87 78 60 38 22 11 1 357 350 345 343 341 339 334 349 355 354 351 346 339 334 328 326 319 318 321 319 314 299
94 87 78 78 75 76 82 86 90 96 100 99 92 83 67 58 48 35 18 5 358 353 350 345 343 341 340 345 4 355 356 347 335 329 323 316 313 323 324 326 320 312 309
98 96 92 89 87 85 89 90 90 90 91 90 87 80 65 53 36 20 9 3 1 351 344 342 345 346 343 355 349 359 355 342 329 321 316 315 323 326 340 334 325 324 314
109 108 107 106 101 100 99 93 86 86 90 88 82 67 51 34 24 12 2 6 359 349 348 348 347 348 343 342 352 354 356 342 331 329 330 332 327 339 341 344 346 332 320
122 117 109 106 106 104 101 100 97 94 91 85 71 53 37 25 16 3 4 1 354 351 349 349 349 348 353 353 1 359 355 337 334 335 334 337 342 345 345 337 332 323 315
122 118 114 108 104 104 102 99 95 88 79 69 54 41 26 14 7 5 2 357 353 350 348 349 353 351 353 3 359 357 350 341 338 338 339 338 340 337 352 348 340 332 323
121 117 115 115 113 110 108 101 91 82 70 55 42 27 15 10 5 8 360 357 350 347 353 349 349 354 9 14 11 10 356 345 342 339 332 327 331 335 343 337 326 316 311
123 122 120 111 107 105 102 95 83 71 55 40 25 19 15 7 11 2 357 353 351 352 350 350 357 350 17 7 13 9 1 349 340 330 328 328 327 333 329 325 319 313 313
130 129 124 116 113 110 104 93 80 61 42 22 17 18 17 4 9 1 357 354 353 354 357 359 350 1 0 359 3 4 358 347 335 330 328 328 328 325 324 321 315 309 313
136 132 126 117 108 107 102 87 67 45 30 19 21 17 12 11 359 0 354 356 1 2 4 348 351 359 353 350 351 353 348 341 335 330 328 325 324 322 320 319 318 318 316
140 134 127 115 100 90 91 83 52 32 28 25 23 13 10 5 360 355 359 6 7 16 352 344 353 348 344 344 344 343 340 340 336 331 326 324 324 330 330 331 332 332 329
142 138 133 122 109 95 83 73 49 35 31 23 21 12 8 355 356 354 4 1 7 0 349 344 344 337 341 340 342 338 338 338 336 332 331 328 337 338 336 336 337 337 334
144 143 133 125 116 103 87 67 50 36 29 20 20 14 358 351 347 358 351 343 340 340 336 324 320 331 336 338 336 337 336 335 331 329 325 337 342 342 341 341 341 339 337
141 136 133 128 121 106 88 66 47 36 30 17 22 360 346 347 353 353 340 342 346 344 339 340 334 332 329 336 338 338 336 335 336 336 342 343 344 342 341 341 338 338 337